Weather History for KPZQ - April, 2013

Change the Weather History Date:

Monday, April 1, 2013

  Actual Average (KAPN) Record (KAPN)
Temperature  
Mean Temperature 25 °F 35 °F  
Max Temperature 29 °F 45 °F 74 °F (1945)
Min Temperature 21 °F 26 °F -6 °F (1923)
Degree Days  
Heating Degree Days 40 30  
Month to date heating degree days 30  
Since 1 July heating degree days 6886  
Cooling Degree Days 0 0  
Month to date cooling degree days 0  
Year to date cooling degree days 0  
Moisture  
Dew Point 14 °F    
Average Humidity 63    
Maximum Humidity 76    
Minimum Humidity 41    
Precipitation  
Precipitation 0.00 in 0.08 in 1.19 in (1929)
Month to date precipitation 0.08  
Year to date precipitation 4.92  
Snow  
Snow 0.00 in 0.30 in 12.50 in (1929)
Month to date snowfall 0.3  
Since 1 July snowfall 78.6  
Snow Depth -    
Sea Level Pressure  
Sea Level Pressure 29.87 in    
Wind  
Wind Speed 15 mph (WNW)    
Max Wind Speed 21 mph    
Max Gust Speed 34 mph    
Visibility 9 miles    
Events Snow    
T = Trace of Precipitation, MM = Missing Value Source: NWS Daily Summary

Daily Weather History Graph

Daily Weather History Graph

Search for Another Location

Airport or City:

Trip Planner

Search our weather history database for the weather conditions in past years. The results will help you decide how hot, cold, wet, or windy it might be!

Date:

Astronomy

Apr. 01, 2013 Rise Set
Actual Time 7:15 AM EDT 8:03 PM EDT
Civil Twilight 6:45 AM EDT 8:33 PM EDT
Nautical Twilight 6:09 AM EDT 9:09 PM EDT
Astronomical Twilight 5:32 AM EDT 9:46 PM EDT
Moon 1:23 AM EDT 10:48 AM EDT
Length of Visible Light 13h 48m
Length of Day
12h 48m
Waning Gibbous, 67% of the Moon is Illuminated
Apr 1
Waning Gibbous
Apr 3
Last Quarter
Apr 10
New
Apr 18
First Quarter
Apr 25
Full

Hourly Weather History & Observations

Time (EDT) Temp. Windchill Dew Point Humidity Pressure Visibility Wind Dir Wind Speed Gust Speed Precip Events Conditions
12:15 AM 27.9 °F 17.3 °F 19.4 °F 71% 29.67 in 10.0 mi West 12.7 mph 23.0 mph N/A   Mostly Cloudy
12:35 AM 27.9 °F 16.8 °F 19.0 °F 69% 29.67 in 10.0 mi West 13.8 mph 25.3 mph N/A   Mostly Cloudy
12:55 AM 27.5 °F 16.3 °F 18.7 °F 69% 29.67 in 10.0 mi West 13.8 mph 24.2 mph N/A   Mostly Cloudy
1:15 AM 27.1 °F 14.1 °F 18.5 °F 70% 29.67 in 10.0 mi WNW 18.4 mph 26.5 mph N/A   Overcast
1:35 AM 27.0 °F 16.1 °F 18.9 °F 72% 29.68 in 10.0 mi WNW 12.7 mph 19.6 mph N/A   Overcast
1:55 AM 26.6 °F 14.7 °F 16.2 °F 65% 29.68 in 10.0 mi WNW 15.0 mph 29.9 mph N/A   Overcast
2:15 AM 26.4 °F 14.5 °F 16.3 °F 66% 29.69 in 10.0 mi WNW 15.0 mph 23.0 mph N/A   Overcast
2:35 AM 25.7 °F 14.0 °F 15.8 °F 66% 29.69 in 10.0 mi WNW 13.8 mph 25.3 mph N/A   Overcast
2:55 AM 25.7 °F 12.7 °F 15.8 °F 66% 29.69 in 10.0 mi WNW 17.3 mph 26.5 mph N/A   Overcast
3:15 AM 24.8 °F 12.4 °F 14.2 °F 64% 29.70 in 10.0 mi WNW 15.0 mph 24.2 mph N/A   Scattered Clouds
3:35 AM 24.6 °F 10.1 °F 13.3 °F 62% 29.70 in 10.0 mi WNW 20.7 mph 26.5 mph N/A   Clear
3:54 AM 24.4 °F 9.9 °F 13.5 °F 63% 29.70 in 10.0 mi WNW 20.7 mph 32.2 mph N/A   Clear
4:15 AM 23.9 °F 11.2 °F 13.6 °F 65% 29.71 in 10.0 mi West 15.0 mph 26.5 mph N/A   Scattered Clouds
4:35 AM 23.9 °F 9.9 °F 14.0 °F 66% 29.72 in 10.0 mi WNW 18.4 mph 25.3 mph N/A   Mostly Cloudy
4:55 AM 23.9 °F 10.3 °F 14.9 °F 69% 29.73 in 7.0 mi WNW 17.3 mph 26.5 mph N/A Snow Light Snow
5:15 AM 23.9 °F 9.9 °F 15.3 °F 70% 29.74 in 10.0 mi WNW 18.4 mph 26.5 mph N/A   Overcast
5:35 AM 23.9 °F 9.1 °F 14.2 °F 66% 29.75 in 10.0 mi WNW 20.7 mph 27.6 mph N/A   Overcast
5:55 AM 23.7 °F 10.5 °F 14.0 °F 66% 29.76 in 10.0 mi WNW 16.1 mph 29.9 mph N/A   Overcast
6:15 AM 23.7 °F 13.3 °F 14.7 °F 69% 29.77 in 10.0 mi WNW 10.4 mph 28.8 mph N/A   Overcast
6:35 AM 23.5 °F 11.3 °F 15.8 °F 72% 29.78 in 10.0 mi WNW 13.8 mph 20.7 mph N/A Snow Light Snow
6:55 AM 23.4 °F 11.1 °F 15.8 °F 73% 29.79 in 10.0 mi WNW 13.8 mph 23.0 mph N/A Snow Light Snow
7:15 AM 23.4 °F 9.2 °F 14.5 °F 69% 29.80 in 10.0 mi WNW 18.4 mph 34.5 mph N/A   Overcast
7:35 AM 23.4 °F 10.6 °F 14.9 °F 70% 29.81 in 10.0 mi NW 15.0 mph 27.6 mph N/A Snow Light Snow
7:55 AM 23.4 °F 8.4 °F 15.3 °F 71% 29.82 in 7.0 mi NW 20.7 mph 29.9 mph N/A Snow Light Snow
8:15 AM 23.4 °F 10.1 °F 15.6 °F 72% 29.83 in 10.0 mi NW 16.1 mph 25.3 mph N/A Snow Light Snow
8:34 AM 23.4 °F 10.6 °F 15.8 °F 73% 29.85 in 10.0 mi NW 15.0 mph 26.5 mph N/A Snow Light Snow
8:55 AM 23.5 °F 10.8 °F 16.5 °F 75% 29.85 in 7.0 mi NW 15.0 mph 20.7 mph N/A Snow Light Snow
9:15 AM 23.4 °F 12.8 °F 16.7 °F 76% 29.86 in 3.0 mi WNW 10.4 mph 23.0 mph N/A Snow Light Snow
9:35 AM 23.4 °F 11.1 °F 16.7 °F 76% 29.86 in 4.0 mi WNW 13.8 mph 20.7 mph N/A Snow Light Snow
9:55 AM 23.7 °F 11.5 °F 16.3 °F 73% 29.87 in 10.0 mi NW 13.8 mph 23.0 mph N/A   Overcast
10:15 AM 24.6 °F 11.7 °F 15.1 °F 67% 29.87 in 10.0 mi WNW 16.1 mph 24.2 mph N/A   Overcast
10:35 AM 26.2 °F 13.4 °F 13.8 °F 59% 29.87 in 10.0 mi WNW 17.3 mph 21.9 mph N/A   Overcast
10:55 AM 26.6 °F 14.3 °F 13.3 °F 57% 29.88 in 10.0 mi WNW 16.1 mph 24.2 mph N/A   Mostly Cloudy
11:14 AM 25.7 °F 12.3 °F 12.9 °F 58% 29.88 in 10.0 mi NW 18.4 mph 28.8 mph N/A   Overcast
11:35 AM 26.6 °F 13.8 °F 14.4 °F 60% 29.89 in 10.0 mi NW 17.3 mph 25.3 mph N/A   Overcast
11:55 AM 26.4 °F 16.6 °F 14.0 °F 59% 29.89 in 10.0 mi WNW 10.4 mph 23.0 mph N/A   Overcast
12:15 PM 25.5 °F 14.9 °F 16.9 °F 70% 29.90 in 3.0 mi West 11.5 mph 25.3 mph N/A Snow Light Snow
12:35 PM 28.0 °F 18.1 °F 16.9 °F 63% 29.90 in 10.0 mi NW 11.5 mph 27.6 mph N/A   Overcast
12:55 PM 27.0 °F 14.7 °F 16.5 °F 65% 29.90 in 10.0 mi NW 16.1 mph 23.0 mph N/A   Overcast
1:15 PM 26.2 °F 13.8 °F 16.0 °F 65% 29.90 in 10.0 mi NW 16.1 mph 25.3 mph N/A   Overcast
1:35 PM 27.9 °F 14.7 °F 14.9 °F 58% 29.91 in 10.0 mi NW 19.6 mph 26.5 mph N/A   Overcast
1:54 PM 28.0 °F 15.7 °F 17.4 °F 64% 29.91 in 10.0 mi WNW 17.3 mph 26.5 mph N/A   Mostly Cloudy
2:15 PM 27.1 °F 15.4 °F 13.1 °F 56% 29.92 in 10.0 mi WNW 15.0 mph 26.5 mph N/A   Mostly Cloudy
2:35 PM 27.3 °F 15.2 °F 10.4 °F 49% 29.92 in 10.0 mi WNW 16.1 mph 29.9 mph N/A   Overcast
2:55 PM 27.9 °F 15.9 °F 9.1 °F 45% 29.93 in 10.0 mi West 16.1 mph 27.6 mph N/A   Overcast
3:15 PM 28.4 °F 16.6 °F 7.7 °F 42% 29.93 in 10.0 mi WNW 16.1 mph 27.6 mph N/A   Overcast
3:35 PM 28.4 °F 17.5 °F 7.5 °F 41% 29.94 in 10.0 mi WNW 13.8 mph 23.0 mph N/A   Overcast
3:55 PM 28.4 °F 16.6 °F 12.0 °F 50% 29.94 in 10.0 mi WNW 16.1 mph 24.2 mph N/A   Overcast
4:15 PM 29.1 °F 16.7 °F 11.1 °F 47% 29.95 in 10.0 mi West 18.4 mph 27.6 mph N/A   Overcast
4:35 PM 28.2 °F 18.3 °F 11.1 °F 49% 29.95 in 10.0 mi West 11.5 mph 26.5 mph N/A   Overcast
4:55 PM 27.1 °F 14.9 °F 10.9 °F 51% 29.96 in 10.0 mi NW 16.1 mph 29.9 mph N/A   Overcast
5:15 PM 27.3 °F 14.8 °F 15.6 °F 61% 29.96 in 7.0 mi West 17.3 mph 24.2 mph N/A   Overcast
5:35 PM 27.0 °F 13.2 °F 10.8 °F 51% 29.97 in 10.0 mi WNW 20.7 mph 29.9 mph N/A   Overcast
5:55 PM 26.6 °F 14.3 °F 10.9 °F 52% 29.98 in 7.0 mi WNW 16.1 mph 26.5 mph N/A   Overcast
6:15 PM 27.0 °F 14.7 °F 12.4 °F 54% 29.98 in 10.0 mi WNW 16.1 mph 23.0 mph N/A   Overcast
6:35 PM 25.2 °F 13.9 °F 13.1 °F 60% 30.00 in 7.0 mi WNW 12.7 mph 21.9 mph N/A Snow Light Snow
6:55 PM 25.2 °F 12.0 °F 14.5 °F 64% 30.00 in 5.0 mi WNW 17.3 mph 27.6 mph N/A Snow Light Snow
7:15 PM 25.2 °F 12.9 °F 11.8 °F 57% 30.00 in 10.0 mi NW 15.0 mph 25.3 mph N/A   Mostly Cloudy
7:35 PM 24.3 °F 12.7 °F 10.0 °F 55% 30.01 in 10.0 mi WNW 12.7 mph 26.5 mph N/A   Scattered Clouds
7:55 PM 23.9 °F 13.5 °F 10.0 °F 56% 30.01 in 10.0 mi WNW 10.4 mph 29.9 mph N/A   Clear
8:15 PM 23.4 °F 9.6 °F 10.8 °F 59% 30.01 in 10.0 mi WNW 17.3 mph 23.0 mph N/A   Clear
8:35 PM 23.0 °F 11.1 °F 10.4 °F 59% 30.01 in 10.0 mi WNW 12.7 mph 18.4 mph N/A   Scattered Clouds
8:55 PM 22.8 °F 11.5 °F 11.3 °F 61% 30.02 in 10.0 mi West 11.5 mph 18.4 mph N/A   Clear
9:15 PM 22.3 °F 11.5 °F 11.7 °F 64% 30.02 in 10.0 mi West 10.4 mph 16.1 mph N/A   Clear
9:35 PM 22.1 °F 10.6 °F 11.3 °F 63% 30.02 in 10.0 mi WNW 11.5 mph 18.4 mph N/A   Clear
9:55 PM 22.1 °F 11.3 °F 10.8 °F 62% 30.03 in 10.0 mi West 10.4 mph - N/A   Clear
10:15 PM 21.7 °F 11.5 °F 11.3 °F 64% 30.03 in 10.0 mi West 9.2 mph 16.1 mph N/A   Clear
10:35 PM 21.6 °F 11.3 °F 11.3 °F 65% 30.03 in 10.0 mi West 9.2 mph - N/A   Clear
10:55 PM 21.7 °F 10.2 °F 11.3 °F 64% 30.03 in 10.0 mi West 11.5 mph 19.6 mph N/A   Clear
11:15 PM 21.4 °F 10.4 °F 11.7 °F 66% 30.03 in 10.0 mi West 10.4 mph - N/A   Clear
11:35 PM 21.4 °F 11.9 °F 12.0 °F 67% 30.03 in 10.0 mi West 8.1 mph - N/A   Scattered Clouds
11:55 PM 21.2 °F 11.7 °F 12.4 °F 69% 30.02 in 10.0 mi West 8.1 mph - N/A Snow Light Snow